UKV5035 RJOS-RJOA

Flight info

Callsign UKV5035
Flight time 0h 22m
Altitude 12000
Route KTE
Aircraft A321/M-SDE3FGHIRWY/LB1

Departure

Time 2026-05-07 15:29
Airport Tokushima Awaodori Airport / JMSDF Tokushima Air Base (RJOS)

Arrival

Time 2026-05-07 15:52
Airport Hiroshima Airport (RJOA)
Time Latitude Longitude Altitude Speed Heading
2026-05-07 14:54 34.13386 134.61709 23 ft 0 kts 13°
2026-05-07 15:22 34.13373 134.61705 24 ft 4 kts 13°
2026-05-07 15:22 34.13346 134.61698 23 ft 4 kts 13°
2026-05-07 15:22 34.13320 134.61690 25 ft 4 kts 13°
2026-05-07 15:23 34.13298 134.61685 23 ft 4 kts 353°
2026-05-07 15:23 34.13274 134.61696 22 ft 4 kts 328°
2026-05-07 15:23 34.13266 134.61702 25 ft 0 kts 328°
2026-05-07 15:24 34.13267 134.61700 25 ft 1 kts 315°
2026-05-07 15:25 34.13268 134.61681 22 ft 7 kts 278°
2026-05-07 15:25 34.13276 134.61581 23 ft 14 kts 280°
2026-05-07 15:25 34.13297 134.61460 22 ft 15 kts 283°
2026-05-07 15:25 34.13322 134.61330 23 ft 16 kts 282°
2026-05-07 15:26 34.13347 134.61190 22 ft 19 kts 282°
2026-05-07 15:26 34.13377 134.61027 24 ft 21 kts 283°
2026-05-07 15:26 34.13409 134.60857 22 ft 21 kts 282°
2026-05-07 15:26 34.13440 134.60682 22 ft 22 kts 282°
2026-05-07 15:27 34.13474 134.60504 22 ft 22 kts 283°
2026-05-07 15:27 34.13508 134.60323 24 ft 22 kts 282°
2026-05-07 15:27 34.13541 134.60139 22 ft 23 kts 282°
2026-05-07 15:27 34.13577 134.59951 22 ft 23 kts 283°
2026-05-07 15:28 34.13611 134.59764 22 ft 22 kts 283°
2026-05-07 15:28 34.13577 134.59648 22 ft 15 kts 206°
2026-05-07 15:28 34.13488 134.59634 22 ft 12 kts 160°
2026-05-07 15:28 34.13450 134.59726 23 ft 17 kts 103°
2026-05-07 15:29 34.13368 134.60154 25 ft 88 kts 102°
2026-05-07 15:29 34.13186 134.61138 22 ft 149 kts 103°
2026-05-07 15:29 34.12931 134.62480 425 ft 164 kts 105°
2026-05-07 15:29 34.12523 134.63705 1144 ft 159 kts 142°
2026-05-07 15:30 34.11545 134.64179 1818 ft 155 kts 182°
2026-05-07 15:30 34.10488 134.63777 2236 ft 173 kts 218°
2026-05-07 15:30 34.09845 134.62471 2541 ft 198 kts 260°
2026-05-07 15:30 34.09963 134.60719 2707 ft 221 kts 278°
2026-05-07 15:31 34.10283 134.58790 2853 ft 248 kts 281°
2026-05-07 15:31 34.10671 134.56696 3334 ft 261 kts 281°
2026-05-07 15:31 34.11073 134.54541 4069 ft 263 kts 281°
2026-05-07 15:31 34.11464 134.52378 4849 ft 265 kts 280°
2026-05-07 15:32 34.11846 134.50199 5634 ft 266 kts 279°
2026-05-07 15:32 34.12224 134.48010 6416 ft 267 kts 279°
2026-05-07 15:32 34.12598 134.45807 7136 ft 269 kts 279°
2026-05-07 15:32 34.12970 134.43588 7847 ft 271 kts 279°
2026-05-07 15:33 34.13338 134.41376 8550 ft 273 kts 279°
2026-05-07 15:33 34.13711 134.39110 9241 ft 277 kts 279°
2026-05-07 15:33 34.14087 134.36821 9932 ft 280 kts 279°
2026-05-07 15:33 34.14476 134.34476 10330 ft 294 kts 278°
2026-05-07 15:34 34.14890 134.31961 10461 ft 317 kts 279°
2026-05-07 15:34 34.15364 134.29274 10594 ft 338 kts 281°
2026-05-07 15:34 34.15943 134.26468 10976 ft 348 kts 282°
2026-05-07 15:34 34.16576 134.23630 11511 ft 351 kts 283°
2026-05-07 15:35 34.17230 134.20770 11886 ft 353 kts 282°
2026-05-07 15:35 34.17881 134.17901 11975 ft 360 kts 282°
2026-05-07 15:35 34.18541 134.14916 11974 ft 373 kts 282°
2026-05-07 15:35 34.19205 134.11866 11983 ft 376 kts 282°
2026-05-07 15:36 34.19855 134.08843 11987 ft 377 kts 282°
2026-05-07 15:36 34.20499 134.05824 12005 ft 377 kts 282°
2026-05-07 15:36 34.21406 134.02827 12011 ft 381 kts 293°
2026-05-07 15:36 34.22790 134.00125 12004 ft 385 kts 304°
2026-05-07 15:37 34.24533 133.97655 12009 ft 386 kts 307°
2026-05-07 15:37 34.26292 133.95192 12009 ft 386 kts 307°
2026-05-07 15:37 34.28041 133.92724 12003 ft 386 kts 307°
2026-05-07 15:37 34.29785 133.90253 12009 ft 386 kts 306°
2026-05-07 15:38 34.31525 133.87783 12004 ft 387 kts 306°
2026-05-07 15:38 34.33272 133.85303 11997 ft 387 kts 306°
2026-05-07 15:38 34.35020 133.82826 12005 ft 387 kts 306°
2026-05-07 15:38 34.36768 133.80346 12006 ft 387 kts 306°
2026-05-07 15:39 34.38517 133.77864 12013 ft 387 kts 306°
2026-05-07 15:39 34.40240 133.75420 12000 ft 386 kts 306°
2026-05-07 15:39 34.41991 133.72937 12006 ft 386 kts 306°
2026-05-07 15:39 34.43744 133.70453 12002 ft 386 kts 306°
2026-05-07 15:40 34.45489 133.67975 11994 ft 386 kts 306°
2026-05-07 15:40 34.47212 133.65524 11937 ft 383 kts 306°
2026-05-07 15:40 34.48909 133.63113 11691 ft 369 kts 306°
2026-05-07 15:40 34.50547 133.60789 11446 ft 356 kts 306°
2026-05-07 15:41 34.52142 133.58521 11197 ft 352 kts 306°
2026-05-07 15:41 34.53725 133.56264 10971 ft 350 kts 306°
2026-05-07 15:41 34.55303 133.54008 10729 ft 350 kts 306°
2026-05-07 15:41 34.56873 133.51761 10484 ft 348 kts 306°
2026-05-07 15:42 34.58434 133.49523 10253 ft 347 kts 306°
2026-05-07 15:42 34.59992 133.47291 10019 ft 344 kts 306°
2026-05-07 15:42 34.61514 133.45112 9852 ft 332 kts 307°
2026-05-07 15:42 34.62961 133.43047 9731 ft 318 kts 307°
2026-05-07 15:43 34.64365 133.41046 9603 ft 305 kts 306°
2026-05-07 15:43 34.65714 133.39123 9475 ft 293 kts 305°
2026-05-07 15:43 34.66732 133.37081 9339 ft 275 kts 284°
2026-05-07 15:43 34.66964 133.34823 9215 ft 268 kts 262°
2026-05-07 15:44 34.66440 133.32692 9082 ft 263 kts 240°
2026-05-07 15:44 34.65261 133.30990 8956 ft 265 kts 219°
2026-05-07 15:44 34.63721 133.29742 8828 ft 266 kts 215°
2026-05-07 15:44 34.62188 133.28535 8556 ft 266 kts 215°
2026-05-07 15:45 34.60633 133.27311 8166 ft 266 kts 215°
2026-05-07 15:45 34.59088 133.26095 7807 ft 264 kts 214°
2026-05-07 15:45 34.57547 133.24882 7360 ft 265 kts 215°
2026-05-07 15:45 34.56004 133.23667 7050 ft 262 kts 215°
2026-05-07 15:46 34.52910 133.21227 5931 ft 258 kts 214°
2026-05-07 15:46 34.51445 133.20077 5493 ft 244 kts 214°
2026-05-07 15:46 34.50070 133.18998 5084 ft 233 kts 214°
2026-05-07 15:47 34.48744 133.17955 4684 ft 223 kts 214°
2026-05-07 15:47 34.47454 133.16941 4321 ft 218 kts 216°
2026-05-07 15:47 34.46190 133.15946 3911 ft 216 kts 216°
2026-05-07 15:47 34.45005 133.14860 3544 ft 212 kts 226°
2026-05-07 15:48 34.44147 133.13424 3212 ft 208 kts 243°
2026-05-07 15:48 34.43699 133.11822 3196 ft 192 kts 257°
2026-05-07 15:48 34.43612 133.10315 3131 ft 166 kts 267°
2026-05-07 15:48 34.43619 133.08992 3062 ft 151 kts 266°
2026-05-07 15:49 34.43619 133.07737 3006 ft 149 kts 265°
2026-05-07 15:49 34.43617 133.06497 2929 ft 145 kts 265°
2026-05-07 15:49 34.43616 133.05284 2864 ft 146 kts 265°
2026-05-07 15:49 34.43615 133.04055 2799 ft 146 kts 265°
2026-05-07 15:50 34.43614 133.02826 2599 ft 145 kts 266°
2026-05-07 15:50 34.43615 133.01619 2394 ft 146 kts 267°
2026-05-07 15:50 34.43612 133.00383 2188 ft 145 kts 266°
2026-05-07 15:50 34.43593 132.99156 2026 ft 146 kts 267°
2026-05-07 15:51 34.43588 132.97919 1787 ft 147 kts 269°
2026-05-07 15:51 34.43582 132.96678 1610 ft 147 kts 270°
2026-05-07 15:51 34.43586 132.95435 1459 ft 147 kts 272°
2026-05-07 15:51 34.43603 132.94203 1224 ft 148 kts 270°
2026-05-07 15:52 34.43601 132.92975 1096 ft 137 kts 270°
2026-05-07 15:52 34.43598 132.91960 1093 ft 94 kts 270°
2026-05-07 15:52 34.43606 132.91541 1093 ft 9 kts 297°
2026-05-07 15:52 34.43656 132.91529 1092 ft 9 kts
2026-05-07 15:53 34.43705 132.91529 1090 ft 0 kts 358°
2026-05-07 15:53 34.43709 132.91529 1089 ft 2 kts 358°
2026-05-07 15:54 34.43743 132.91531 1089 ft 7 kts 18°
2026-05-07 15:54 34.43769 132.91583 1089 ft 8 kts 86°
2026-05-07 15:54 34.43771 132.91650 1090 ft 8 kts 89°
2026-05-07 15:54 34.43772 132.91713 1089 ft 6 kts 90°
2026-05-07 15:55 34.43772 132.91772 1089 ft 8 kts 90°
2026-05-07 15:55 34.43771 132.91855 1087 ft 12 kts 90°
2026-05-07 15:55 34.43770 132.91961 1086 ft 13 kts 90°
2026-05-07 15:55 34.43794 132.92033 1085 ft 8 kts 12°
2026-05-07 15:56 34.43864 132.92033 1082 ft 9 kts
2026-05-07 15:56 34.43887 132.92032 1080 ft 2 kts 359°
2026-05-07 15:56 34.43891 132.92032 1080 ft 0 kts 359°